Location: ????????
(48.4751°N, 37.6926°E)
Time: 20:30:09
(UTC+00:00)

USA 281 - Pass Details

Date: 20 January 2021
Orbit: 1072 x 1086 km, 106.0° (Epoch: 26 February)

Event Time Altitude Azimuth Distance (km) Brightness Sun altitude
Exits shadow 16:09:38 21° 40° (NE) 2,239 4.5 -19.6°
Maximum altitude 16:09:43 21° 39° (NE) 2,239 4.5 -19.6°
Drops below altitude 10° 16:14:21 10° 354° (N) 2,941 5.5 -20.3°
Sets 16:17:31 0° 339° (NNW) 3,899 6.3 -20.9°
